If you wish to contribute or participate in the discussions about articles you are invited to join SKYbrary as a registered user

 Actions

Alcantarilla Airport

From SKYbrary Wiki

LERI
Airport
ICAO: LERI
Summary
Name Alcantarilla Airport
Region Europe
Territory Spain ES.gif
Location
Serving Murcia
Elevation 76.2 m
250 ft
250 ft76.2 m
Type medium airport
Coordinates 37° 57' 4.00" N, 1° 13' 49.15" W
Runways
Designator Length Width Surface ROPS
7/25 938 m3,077.428 ft
45 m147.638 ft
ASP /


METAR
Observation LERI 211800Z 15004KT CAVOK 12/07 Q1029 NOSIG
Station Murcia / Alcantarilla
Date/Time 21 February 2019 18:00:00
Wind direction 150°
Wind speed 04 kts
Lowest cloud amount clouds and visibility OK
Temperature 12°C
Dew point 7°C
Humidity 71%
QNH 1029 hPa
Weather condition n/a